This is the latest recevied weather packets stored in our database for station/object YO8CLN-10. If no packets are shown the sender has not sent any weather packets the latest 10 day(s).
| Time | Temp. | Humidity | Pressure | Rain* | Wind** | Luminosity | Snow |
|---|---|---|---|---|---|---|---|
| 1777194461 | 16.11° C | 45% | 1111 hPa | 0 mm | - | - | - |
| 1777193861 | 15.56° C | 44% | 1111 hPa | 0 mm | - | - | - |
| 1777193260 | 16.11° C | 44% | 1111 hPa | 0 mm | - | - | - |
| 1777192659 | 16.11° C | 45% | 1111 hPa | 0 mm | - | - | - |
| 1777192059 | 16.11° C | 45% | 1111 hPa | 0 mm | - | - | - |
| 1777191458 | 16.11° C | 46% | 1111 hPa | 0 mm | - | - | - |
| 1777190858 | 16.11° C | 46% | 1111 hPa | 0 mm | - | - | - |
| 1777190257 | 15.56° C | 47% | 1111 hPa | 0 mm | - | - | - |
| 1777189657 | 15.56° C | 47% | 1111 hPa | 0 mm | - | - | - |
| 1777189056 | 15° C | 48% | 1111 hPa | 0 mm | - | - | - |
| 1777188455 | 15° C | 48% | 1111 hPa | 0 mm | - | - | - |
| 1777187855 | 15° C | 49% | 1111 hPa | 0 mm | - | - | - |
| 1777187254 | 14.44° C | 49% | 1111 hPa | 0 mm | - | - | - |
| 1777186654 | 13.89° C | 50% | 1111 hPa | 0 mm | - | - | - |
| 1777186053 | 13.33° C | 51% | 1111 hPa | 0 mm | - | - | - |
| 1777185453 | 12.78° C | 53% | 1111 hPa | 0 mm | - | - | - |
| 1777184852 | 12.22° C | 53% | 1111 hPa | 0 mm | - | - | - |
| 1777184251 | 11.67° C | 53% | 1111 hPa | 0 mm | - | - | - |
| 1777183651 | 12.78° C | 54% | 1111 hPa | 0 mm | - | - | - |
| 1777183050 | 13.33° C | 55% | 1111 hPa | 0 mm | - | - | - |
| 1777182450 | 13.33° C | 57% | 1111 hPa | 0 mm | - | - | - |
| 1777181849 | 12.78° C | 60% | 1111 hPa | 0 mm | - | - | - |
| 1777181249 | 11.67° C | 64% | 1111 hPa | 0 mm | - | - | - |
| 1777180648 | 10.56° C | 69% | 1111 hPa | 0 mm | - | - | - |
| 1777180047 | 9.44° C | 72% | 1111 hPa | 0 mm | - | - | - |
* Rain latest hour (hover to see other rain measurements)
** Current wind speed in m/s (hover to see current wind gust speed)